INTELSAT 901

operational
NORAD ID: 26824 Int'l Des: 2001-024 Owner: INTEL Country: I-INT
HEOCIRCULAR

INTELSAT 901について

説明を読み込み中...

リアルタイム位置

3D地球を読み込み中...

次回通過

高度履歴

Altitude vs Time

uPlot chart will show altitude changes over time

軌道要素

1 26824U 01024A 26062.09025993 -.00000126 00000-0 00000+0 0 9991
2 26824 0.9802 86.2108 0003939 325.8242 156.0672 0.98820526 21873
Epoch: Mar 3, 2026 • Age: 17 hours

現在のステータス

高度 36182.0 km
速度 3.06 km/s
衛星直下点 -0.31°S, 11.53°E
打ち上げ日 Jun 9, 2001
運用期間 24.7 years
タイプ communications

技術仕様

分類 Payload
質量 4723.00 kg
乾燥質量 1972.00 kg
総質量 4723.00 kg
長さ 5.60 m
直径 2.80 m
スパン 31.00 m
形状 Box + 2 Pan + 2 Dish
製造者 LOR
バスタイプ FS-1300HL
フェーズステータス Renamed
所有者/国 INTEL/I-INT

大規模コンステレーション

Loading constellations...